Regional Weather Roundup
Issued by NWS

Home | Current Version | Previous Version | Text Only | Print | Product List | Glossary On
Versions: 1 2 3 4 5 6 7 8 9 10 11 12 13 14 15 16 17 18 19 20 21 22 23 24 25 26 27 28 29 30 31 32 33 34 35 36 37 38 39 40 41 42 43 44 45 46 47 48 49 50
000
ASUS44 KOUN 171010
RWROK

WEATHER ROUNDUP FOR OKLAHOMA
NATIONAL WEATHER SERVICE NORMAN OK
500 AM CDT THU APR 17 2014

NOTE: "FAIR" INDICATES FEW OR NO CLOUDS BELOW 12,000 FEET WITH NO
      SIGNIFICANT WEATHER AND/OR OBSTRUCTIONS TO VISIBILITY.

OKZ001>007-009>012-014-015-017-171100-
NORTHWEST OKLAHOMA AND THE PANHANDLE

CITY           SKY/WX    TMP DP  RH WIND       PRES   REMARKS
GAGE           MOCLDY    45  33  63 NE13      30.09R
ENID/VANCE AFB MOCLDY    48  39  71 NE13      30.09R
ENID/WOODRING  CLOUDY    46  36  66 N10       30.10R
$$

OKZ016-021>023-033>039-044-045-171100-
SOUTHWEST OKLAHOMA

CITY           SKY/WX    TMP DP  RH WIND       PRES   REMARKS
LAWTON/REGL    CLOUDY    51  41  68 SE10      30.04R
LAWTON/FT SILL CLOUDY    51  40  65 SE10      30.03R
FREDERICK      CLOUDY    50  42  74 E9        29.99R
CLINTON        MOCLDY    47  39  74 NE7       30.07R
HOBART         PTCLDY    50  43  77 SE7       30.03R
ALTUS AFB      MOCLDY    51  43  73 E13       30.01S
$$

OKZ018>020-024>031-171100-
CENTRAL OKLAHOMA

CITY           SKY/WX    TMP DP  RH WIND       PRES   REMARKS
OKLAHOMA CITY  MOCLDY    48  36  63 SE7       30.07R
OKC/WILEY POST MOCLDY    51  35  54 VRB5      30.09R
OKC/TINKER AFB MOCLDY    48  36  64 N12       30.07R
STILLWATER     MOCLDY    48  38  68 NE5       30.12R
GUTHRIE        CLOUDY    50  37  61 E6        30.11R
$$

OKZ008-013-054>072-171100-
NORTHEAST OKLAHOMA

CITY           SKY/WX    TMP DP  RH WIND       PRES   REMARKS
TULSA          MOCLDY    43  36  76 N5        30.13R
TULSA/JONES    PTCLDY    42  37  82 NW3       30.13R
PONCA CITY     CLOUDY    47  36  65 NE9       30.12R
BARTLESVILLE   MOCLDY    42  37  82 CALM      30.15R
MUSKOGEE       CLEAR     42  35  76 S6        30.13R
$$

OKZ032-040>043-046>053-073>077-171100-
SOUTH CENTRAL/SOUTHEAST OKLAHOMA

CITY           SKY/WX    TMP DP  RH WIND       PRES   REMARKS
ARDMORE/DWNTWN   N/A     45  37  76 CALM      30.07S
MCALESTER      PTCLDY    44  35  70 SE3       30.11R
$$




USA.gov is the U.S. government's official web portal to all federal, state and local government web resources and services.